SWA3353 KMDW-KPHL

Flight info

Callsign SWA3353
Flight time 1h 32m
Altitude 39000
Route LEWKE ZIINE Q186 SPYDY EWC JST BOJID4
Aircraft B38M/M-SADE2E3GHIJ4J7P2RWZ/LB1D1

Departure

Time 2026-05-04 21:16
Airport Chicago Midway International Airport (KMDW)

Arrival

Time 2026-05-04 22:48
Airport Philadelphia International Airport (KPHL)
Time Latitude Longitude Altitude Speed Heading
2026-05-04 20:53 41.78656 -87.74668 610 ft 0 kts 108°
2026-05-04 20:53 41.78655 -87.74663 631 ft 0 kts 108°
2026-05-04 21:08 41.78656 -87.74667 631 ft 3 kts 108°
2026-05-04 21:08 41.78664 -87.74699 631 ft 2 kts 108°
2026-05-04 21:08 41.78667 -87.74724 631 ft 4 kts 60°
2026-05-04 21:08 41.78653 -87.74730 631 ft 4 kts 348°
2026-05-04 21:09 41.78633 -87.74725 631 ft 0 kts 348°
2026-05-04 21:12 41.78651 -87.74740 631 ft 8 kts 319°
2026-05-04 21:12 41.78733 -87.74739 631 ft 18 kts 41°
2026-05-04 21:12 41.78837 -87.74608 636 ft 22 kts 43°
2026-05-04 21:13 41.78951 -87.74466 632 ft 23 kts 43°
2026-05-04 21:13 41.79070 -87.74316 632 ft 24 kts 43°
2026-05-04 21:13 41.79097 -87.74283 631 ft 0 kts 43°
2026-05-04 21:13 41.79097 -87.74282 631 ft 0 kts 43°
2026-05-04 21:14 41.79098 -87.74282 631 ft 0 kts 43°
2026-05-04 21:14 41.79103 -87.74275 631 ft 5 kts 41°
2026-05-04 21:14 41.79176 -87.74292 631 ft 16 kts 311°
2026-05-04 21:14 41.79178 -87.74336 631 ft 0 kts 223°
2026-05-04 21:15 41.79177 -87.74338 631 ft 2 kts 222°
2026-05-04 21:15 41.79043 -87.74507 640 ft 64 kts 224°
2026-05-04 21:15 41.78538 -87.75145 631 ft 133 kts 223°
2026-05-04 21:15 41.77748 -87.76132 933 ft 158 kts 220°
2026-05-04 21:16 41.77220 -87.77379 1623 ft 170 kts 262°
2026-05-04 21:16 41.77509 -87.79035 2059 ft 197 kts 296°
2026-05-04 21:16 41.78551 -87.80269 2915 ft 211 kts 332°
2026-05-04 21:16 41.80047 -87.80888 3367 ft 243 kts 337°
2026-05-04 21:17 41.81770 -87.81476 3973 ft 267 kts 352°
2026-05-04 21:17 41.83599 -87.81032 4353 ft 280 kts 25°
2026-05-04 21:17 41.84990 -87.79234 5288 ft 286 kts 58°
2026-05-04 21:17 41.85526 -87.76669 6130 ft 291 kts 94°
2026-05-04 21:18 41.85108 -87.74025 6936 ft 295 kts 110°
2026-05-04 21:18 41.84630 -87.71292 7740 ft 305 kts 104°
2026-05-04 21:18 41.84228 -87.68474 8614 ft 310 kts 103°
2026-05-04 21:18 41.83838 -87.65598 9482 ft 316 kts 103°
2026-05-04 21:19 41.83452 -87.62667 10289 ft 324 kts 103°
2026-05-04 21:19 41.83062 -87.59607 10780 ft 343 kts 102°
2026-05-04 21:19 41.82672 -87.56364 11180 ft 361 kts 102°
2026-05-04 21:19 41.82260 -87.52968 11652 ft 376 kts 102°
2026-05-04 21:20 41.81830 -87.49453 12185 ft 388 kts 102°
2026-05-04 21:20 41.81378 -87.45836 12705 ft 398 kts 102°
2026-05-04 21:20 41.80912 -87.42148 13310 ft 405 kts 102°
2026-05-04 21:20 41.80430 -87.38400 14024 ft 409 kts 102°
2026-05-04 21:21 41.79939 -87.34627 14690 ft 413 kts 102°
2026-05-04 21:21 41.79607 -87.32094 15119 ft 415 kts 102°
2026-05-04 21:21 41.79098 -87.28214 15784 ft 418 kts 102°
2026-05-04 21:21 41.78598 -87.24411 16382 ft 423 kts 102°
2026-05-04 21:22 41.78084 -87.20518 16992 ft 425 kts 102°
2026-05-04 21:22 41.77735 -87.17891 17396 ft 428 kts 102°
2026-05-04 21:22 41.77212 -87.13953 17965 ft 431 kts 102°
2026-05-04 21:22 41.76681 -87.09975 18522 ft 435 kts 102°
2026-05-04 21:23 41.76238 -87.05958 19053 ft 439 kts 93°
2026-05-04 21:23 41.76265 -87.01869 19633 ft 441 kts 89°
2026-05-04 21:23 41.76312 -86.97747 20101 ft 445 kts 89°
2026-05-04 21:23 41.76362 -86.93586 20629 ft 447 kts 89°
2026-05-04 21:24 41.76413 -86.89415 21140 ft 449 kts 89°
2026-05-04 21:24 41.76464 -86.85218 21616 ft 452 kts 89°
2026-05-04 21:24 41.76512 -86.80991 22104 ft 455 kts 89°
2026-05-04 21:24 41.76560 -86.76748 22556 ft 458 kts 89°
2026-05-04 21:25 41.76606 -86.72479 23032 ft 460 kts 89°
2026-05-04 21:25 41.76651 -86.68174 23462 ft 463 kts 89°
2026-05-04 21:25 41.76695 -86.63862 23888 ft 465 kts 89°
2026-05-04 21:25 41.76738 -86.59507 24331 ft 467 kts 89°
2026-05-04 21:26 41.76778 -86.55147 24725 ft 470 kts 90°
2026-05-04 21:26 41.76818 -86.50759 25091 ft 473 kts 90°
2026-05-04 21:26 41.76856 -86.46356 25499 ft 475 kts 89°
2026-05-04 21:26 41.76893 -86.41913 25875 ft 477 kts 90°
2026-05-04 21:27 41.76927 -86.37467 26233 ft 479 kts 90°
2026-05-04 21:27 41.76962 -86.32999 26592 ft 482 kts 89°
2026-05-04 21:27 41.77013 -86.28497 26935 ft 484 kts 89°
2026-05-04 21:27 41.77067 -86.23984 27284 ft 485 kts 89°
2026-05-04 21:28 41.77117 -86.19453 27631 ft 487 kts 89°
2026-05-04 21:28 41.77166 -86.14905 27937 ft 490 kts 89°
2026-05-04 21:28 41.77213 -86.10386 28249 ft 491 kts 89°
2026-05-04 21:28 41.77259 -86.05791 28558 ft 493 kts 89°
2026-05-04 21:29 41.77303 -86.01197 28853 ft 495 kts 89°
2026-05-04 21:29 41.77345 -85.96571 29150 ft 497 kts 89°
2026-05-04 21:29 41.77385 -85.91939 29466 ft 498 kts 89°
2026-05-04 21:29 41.77425 -85.87301 29875 ft 497 kts 89°
2026-05-04 21:30 41.77461 -85.82675 30291 ft 495 kts 89°
2026-05-04 21:30 41.77496 -85.78076 30694 ft 494 kts 89°
2026-05-04 21:30 41.77529 -85.73480 31031 ft 494 kts 89°
2026-05-04 21:30 41.77560 -85.68883 31380 ft 493 kts 89°
2026-05-04 21:31 41.77617 -85.59698 32038 ft 492 kts 89°
2026-05-04 21:31 41.77642 -85.55116 32340 ft 492 kts 89°
2026-05-04 21:31 41.77666 -85.50541 32661 ft 491 kts 89°
2026-05-04 21:32 41.77687 -85.45967 32966 ft 491 kts 89°
2026-05-04 21:32 41.77707 -85.41402 33259 ft 490 kts 89°
2026-05-04 21:32 41.77725 -85.36836 33555 ft 490 kts 89°
2026-05-04 21:32 41.77742 -85.32269 33848 ft 489 kts 89°
2026-05-04 21:33 41.77757 -85.27712 34117 ft 490 kts 89°
2026-05-04 21:33 41.77771 -85.23148 34408 ft 489 kts 89°
2026-05-04 21:33 41.77784 -85.18601 34683 ft 489 kts 89°
2026-05-04 21:33 41.77798 -85.14040 34955 ft 488 kts 89°
2026-05-04 21:34 41.77809 -85.09509 35237 ft 487 kts 89°
2026-05-04 21:34 41.77819 -85.04970 35478 ft 487 kts 89°
2026-05-04 21:34 41.77827 -85.00442 35709 ft 486 kts 89°
2026-05-04 21:34 41.77834 -84.95919 35899 ft 487 kts 89°
2026-05-04 21:35 41.77838 -84.91379 36088 ft 487 kts 89°
2026-05-04 21:35 41.77841 -84.86843 36294 ft 487 kts 89°
2026-05-04 21:35 41.77841 -84.82311 36477 ft 487 kts 89°
2026-05-04 21:35 41.77841 -84.77777 36659 ft 487 kts 89°
2026-05-04 21:36 41.77838 -84.73256 36887 ft 485 kts 89°
2026-05-04 21:36 41.77834 -84.68748 37157 ft 482 kts 89°
2026-05-04 21:36 41.77828 -84.64268 37401 ft 480 kts 89°
2026-05-04 21:36 41.77820 -84.59798 37602 ft 479 kts 90°
2026-05-04 21:37 41.77811 -84.55343 37752 ft 478 kts 90°
2026-05-04 21:37 41.77800 -84.50890 37880 ft 478 kts 90°
2026-05-04 21:37 41.77789 -84.46954 37990 ft 478 kts 90°
2026-05-04 21:38 41.77758 -84.38115 38204 ft 479 kts 90°
2026-05-04 21:38 41.77740 -84.33646 38317 ft 479 kts 90°
2026-05-04 21:38 41.77720 -84.29125 38428 ft 479 kts 90°
2026-05-04 21:38 41.77699 -84.24659 38535 ft 479 kts 90°
2026-05-04 21:39 41.77676 -84.20259 38653 ft 479 kts 90°
2026-05-04 21:39 41.77625 -84.11310 38661 ft 481 kts 90°
2026-05-04 21:40 41.77566 -84.02368 38672 ft 479 kts 90°
2026-05-04 21:40 41.77512 -83.94931 38674 ft 480 kts 90°
2026-05-04 21:41 41.77456 -83.87717 38664 ft 480 kts 90°
2026-05-04 21:41 41.77379 -83.78778 38673 ft 480 kts 90°
2026-05-04 21:42 41.77296 -83.69843 38666 ft 480 kts 90°
2026-05-04 21:42 41.77207 -83.60896 38651 ft 480 kts 90°
2026-05-04 21:43 41.76814 -83.51987 38663 ft 479 kts 97°
2026-05-04 21:43 41.75980 -83.43113 38661 ft 480 kts 97°
2026-05-04 21:44 41.75125 -83.34304 38663 ft 480 kts 97°
2026-05-04 21:44 41.74310 -83.25994 38666 ft 481 kts 97°
2026-05-04 21:45 41.73434 -83.17119 38665 ft 480 kts 97°
2026-05-04 21:45 41.72550 -83.08248 38664 ft 480 kts 97°
2026-05-04 21:46 41.72166 -83.04423 38671 ft 480 kts 97°
2026-05-04 21:46 41.71274 -82.95562 38672 ft 481 kts 97°
2026-05-04 21:47 41.70379 -82.86749 38675 ft 481 kts 97°
2026-05-04 21:47 41.69472 -82.77887 38674 ft 482 kts 97°
2026-05-04 21:48 41.68555 -82.69000 38676 ft 481 kts 98°
2026-05-04 21:48 41.67633 -82.60125 38685 ft 483 kts 98°
2026-05-04 21:49 41.66703 -82.51239 38686 ft 482 kts 98°
2026-05-04 21:49 41.65764 -82.42351 38693 ft 482 kts 98°
2026-05-04 21:50 41.64819 -82.33467 38703 ft 484 kts 98°
2026-05-04 21:50 41.63866 -82.24569 38712 ft 483 kts 98°
2026-05-04 21:51 41.62905 -82.15666 38712 ft 483 kts 98°
2026-05-04 21:51 41.61938 -82.06779 38729 ft 483 kts 98°
2026-05-04 21:52 41.60965 -81.97893 38729 ft 483 kts 98°
2026-05-04 21:52 41.59984 -81.89003 38730 ft 484 kts 98°
2026-05-04 21:53 41.58996 -81.80117 38730 ft 483 kts 98°
2026-05-04 21:53 41.58002 -81.71237 38720 ft 484 kts 98°
2026-05-04 21:54 41.57000 -81.62356 38721 ft 484 kts 98°
2026-05-04 21:54 41.56086 -81.54296 38725 ft 484 kts 98°
2026-05-04 21:55 41.55050 -81.45423 38742 ft 483 kts 102°
2026-05-04 21:55 41.53538 -81.40140 38732 ft 476 kts 125°
2026-05-04 21:56 41.49609 -81.32953 38731 ft 478 kts 129°
2026-05-04 21:56 41.45538 -81.25910 38757 ft 480 kts 130°
2026-05-04 21:57 41.41419 -81.18938 38755 ft 478 kts 130°
2026-05-04 21:57 41.37287 -81.11976 38765 ft 479 kts 130°
2026-05-04 21:58 41.33180 -81.05074 38762 ft 479 kts 130°
2026-05-04 21:58 41.29035 -80.98124 38765 ft 480 kts 130°
2026-05-04 21:59 41.24883 -80.91178 38777 ft 479 kts 130°
2026-05-04 21:59 41.20734 -80.84254 38777 ft 479 kts 130°
2026-05-04 22:00 41.16581 -80.77338 38794 ft 480 kts 130°
2026-05-04 22:00 41.12422 -80.70428 38780 ft 479 kts 130°
2026-05-04 22:01 41.08964 -80.64693 38783 ft 479 kts 131°
2026-05-04 22:01 41.04794 -80.57794 38789 ft 479 kts 131°
2026-05-04 22:02 41.00626 -80.50913 38795 ft 479 kts 130°
2026-05-04 22:02 40.96453 -80.44038 38793 ft 479 kts 131°
2026-05-04 22:03 40.92274 -80.37169 38795 ft 479 kts 131°
2026-05-04 22:03 40.88093 -80.30312 38806 ft 479 kts 131°
2026-05-04 22:04 40.83913 -80.23467 38815 ft 479 kts 131°
2026-05-04 22:04 40.82052 -80.19823 38794 ft 479 kts 116°
2026-05-04 22:04 40.80636 -80.15849 38822 ft 480 kts 117°
2026-05-04 22:05 40.77715 -80.07904 38823 ft 482 kts 116°
2026-05-04 22:05 40.74819 -79.99931 38821 ft 481 kts 116°
2026-05-04 22:06 40.71932 -79.91987 38822 ft 480 kts 116°
2026-05-04 22:06 40.69058 -79.84100 38823 ft 480 kts 116°
2026-05-04 22:07 40.66159 -79.76170 38824 ft 481 kts 116°
2026-05-04 22:07 40.63256 -79.68245 38831 ft 481 kts 116°
2026-05-04 22:08 40.60346 -79.60326 38830 ft 481 kts 116°
2026-05-04 22:08 40.57427 -79.52403 38842 ft 481 kts 116°
2026-05-04 22:09 40.54507 -79.44499 38840 ft 481 kts 116°
2026-05-04 22:09 40.51580 -79.36597 38842 ft 481 kts 116°
2026-05-04 22:10 40.48646 -79.28699 38853 ft 481 kts 116°
2026-05-04 22:10 40.45711 -79.20818 38850 ft 480 kts 116°
2026-05-04 22:11 40.42772 -79.12947 38847 ft 481 kts 116°
2026-05-04 22:11 40.39825 -79.05080 38851 ft 480 kts 116°
2026-05-04 22:12 40.36876 -78.97221 38860 ft 480 kts 116°
2026-05-04 22:12 40.33925 -78.89378 38876 ft 480 kts 116°
2026-05-04 22:13 40.31895 -78.81168 38856 ft 473 kts 91°
2026-05-04 22:13 40.31717 -78.72531 38867 ft 476 kts 89°
2026-05-04 22:14 40.31650 -78.63852 38866 ft 476 kts 88°
2026-05-04 22:14 40.31623 -78.55180 38865 ft 475 kts 88°
2026-05-04 22:15 40.31593 -78.46523 38862 ft 475 kts 88°
2026-05-04 22:15 40.31558 -78.37875 38850 ft 475 kts 89°
2026-05-04 22:16 40.31516 -78.29282 38851 ft 474 kts 89°
2026-05-04 22:16 40.31466 -78.20583 38851 ft 474 kts 89°
2026-05-04 22:17 40.31412 -78.12001 38851 ft 474 kts 89°
2026-05-04 22:17 40.31350 -78.03358 38849 ft 474 kts 89°
2026-05-04 22:18 40.31282 -77.94717 38851 ft 475 kts 89°
2026-05-04 22:18 40.31208 -77.86088 38392 ft 472 kts 89°
2026-05-04 22:18 40.31168 -77.81770 37637 ft 475 kts 89°
2026-05-04 22:19 40.31127 -77.77446 37063 ft 473 kts 88°
2026-05-04 22:19 40.31084 -77.73147 36469 ft 471 kts 88°
2026-05-04 22:19 40.31040 -77.68860 35864 ft 469 kts 88°
2026-05-04 22:19 40.30995 -77.64589 35195 ft 470 kts 88°
2026-05-04 22:20 40.30948 -77.60327 34864 ft 462 kts 88°
2026-05-04 22:20 40.30900 -77.56185 34768 ft 448 kts 88°
2026-05-04 22:20 40.30853 -77.52160 34672 ft 435 kts 87°
2026-05-04 22:20 40.30805 -77.48250 34581 ft 423 kts 87°
2026-05-04 22:21 40.30758 -77.44453 34437 ft 413 kts 87°
2026-05-04 22:21 40.30711 -77.40679 33662 ft 420 kts 86°
2026-05-04 22:21 40.30660 -77.36804 32700 ft 431 kts 87°
2026-05-04 22:21 40.30606 -77.32824 31623 ft 444 kts 88°
2026-05-04 22:22 40.30549 -77.28730 30548 ft 457 kts 88°
2026-05-04 22:22 40.30490 -77.24511 29435 ft 469 kts 89°
2026-05-04 22:22 40.30427 -77.20198 28310 ft 480 kts 89°
2026-05-04 22:22 40.30361 -77.15782 27219 ft 489 kts 89°
2026-05-04 22:23 40.30292 -77.11317 26495 ft 489 kts 89°
2026-05-04 22:23 40.30074 -77.06904 25933 ft 486 kts 99°
2026-05-04 22:23 40.29199 -77.02700 25314 ft 483 kts 106°
2026-05-04 22:23 40.28255 -76.98495 24711 ft 480 kts 106°
2026-05-04 22:24 40.27292 -76.94269 24127 ft 476 kts 106°
2026-05-04 22:24 40.26348 -76.90185 23561 ft 473 kts 106°
2026-05-04 22:24 40.25395 -76.86081 22991 ft 470 kts 107°
2026-05-04 22:24 40.24448 -76.82007 22462 ft 465 kts 107°
2026-05-04 22:25 40.23511 -76.77977 21961 ft 461 kts 107°
2026-05-04 22:25 40.22593 -76.74022 21707 ft 450 kts 107°
2026-05-04 22:25 40.21688 -76.70147 21460 ft 440 kts 107°
2026-05-04 22:25 40.20799 -76.66351 21225 ft 432 kts 107°
2026-05-04 22:26 40.19904 -76.62538 20932 ft 444 kts 107°
2026-05-04 22:26 40.18992 -76.58663 20666 ft 449 kts 107°
2026-05-04 22:26 40.18106 -76.54903 20418 ft 450 kts 107°
2026-05-04 22:26 40.17184 -76.50996 20162 ft 449 kts 107°
2026-05-04 22:27 40.16266 -76.47107 19904 ft 446 kts 107°
2026-05-04 22:27 40.15350 -76.43239 19633 ft 445 kts 107°
2026-05-04 22:27 40.14437 -76.39390 19368 ft 443 kts 107°
2026-05-04 22:27 40.13525 -76.35550 19097 ft 442 kts 107°
2026-05-04 22:28 40.12615 -76.31720 18844 ft 439 kts 108°
2026-05-04 22:28 40.11910 -76.27838 18153 ft 443 kts 95°
2026-05-04 22:28 40.11666 -76.23882 17587 ft 430 kts 95°
2026-05-04 22:28 40.11397 -76.20132 17493 ft 405 kts 95°
2026-05-04 22:29 40.11148 -76.16559 17317 ft 385 kts 94°
2026-05-04 22:29 40.10913 -76.13141 17122 ft 372 kts 94°
2026-05-04 22:29 40.10683 -76.09809 16924 ft 365 kts 95°
2026-05-04 22:29 40.10457 -76.06543 16723 ft 357 kts 95°
2026-05-04 22:30 40.10236 -76.03341 16534 ft 350 kts 95°
2026-05-04 22:30 40.10016 -76.00200 16338 ft 344 kts 95°
2026-05-04 22:30 40.09802 -75.97118 16154 ft 337 kts 95°
2026-05-04 22:30 40.09592 -75.94112 15956 ft 330 kts 95°
2026-05-04 22:31 40.09380 -75.91110 15503 ft 333 kts 95°
2026-05-04 22:31 40.09165 -75.88080 15062 ft 336 kts 95°
2026-05-04 22:31 40.08949 -75.85034 14617 ft 338 kts 95°
2026-05-04 22:31 40.08731 -75.81958 14171 ft 342 kts 95°
2026-05-04 22:32 40.08513 -75.78900 13721 ft 344 kts 95°
2026-05-04 22:32 40.08288 -75.75775 13260 ft 347 kts 95°
2026-05-04 22:32 40.08134 -75.72660 13068 ft 339 kts 92°
2026-05-04 22:32 40.07998 -75.69617 12822 ft 334 kts 93°
2026-05-04 22:33 40.07857 -75.66600 12536 ft 331 kts 93°
2026-05-04 22:33 40.07717 -75.63608 12264 ft 328 kts 93°
2026-05-04 22:33 40.07575 -75.60645 11975 ft 325 kts 93°
2026-05-04 22:33 40.07434 -75.57709 11720 ft 324 kts 93°
2026-05-04 22:34 40.07293 -75.54780 11438 ft 322 kts 93°
2026-05-04 22:34 40.07152 -75.51879 11175 ft 320 kts 94°
2026-05-04 22:34 40.07010 -75.48990 10899 ft 317 kts 94°
2026-05-04 22:34 40.06870 -75.46121 10631 ft 315 kts 94°
2026-05-04 22:35 40.06729 -75.43277 10358 ft 313 kts 94°
2026-05-04 22:35 40.06589 -75.40449 10089 ft 311 kts 94°
2026-05-04 22:35 40.06450 -75.37647 9818 ft 309 kts 94°
2026-05-04 22:35 40.06311 -75.34864 9547 ft 306 kts 95°
2026-05-04 22:36 40.06175 -75.32167 9300 ft 305 kts 95°
2026-05-04 22:36 40.06033 -75.29352 9030 ft 303 kts 95°
2026-05-04 22:36 40.05966 -75.28020 8903 ft 302 kts 95°
2026-05-04 22:36 40.05885 -75.26443 8756 ft 301 kts 95°
2026-05-04 22:37 40.05658 -75.23750 8466 ft 297 kts 108°
2026-05-04 22:37 40.04733 -75.21435 8114 ft 283 kts 136°
2026-05-04 22:37 40.03200 -75.19948 7776 ft 271 kts 161°
2026-05-04 22:37 40.01427 -75.19156 7450 ft 272 kts 166°
2026-05-04 22:38 39.99710 -75.18067 6983 ft 280 kts 143°
2026-05-04 22:38 39.98535 -75.16037 6538 ft 284 kts 114°
2026-05-04 22:38 39.98191 -75.13521 6091 ft 284 kts 87°
2026-05-04 22:38 39.98589 -75.11021 5662 ft 282 kts 75°
2026-05-04 22:39 39.99110 -75.08565 5197 ft 280 kts 75°
2026-05-04 22:39 39.99646 -75.06127 4777 ft 280 kts 75°
2026-05-04 22:39 40.00183 -75.03700 4513 ft 277 kts 75°
2026-05-04 22:39 40.00715 -75.01287 4248 ft 275 kts 75°
2026-05-04 22:40 40.01244 -74.98892 3971 ft 275 kts 75°
2026-05-04 22:40 40.01758 -74.96560 3697 ft 266 kts 76°
2026-05-04 22:40 40.02257 -74.94241 3443 ft 266 kts 80°
2026-05-04 22:40 40.02244 -74.91888 3145 ft 257 kts 110°
2026-05-04 22:41 40.01399 -74.89952 2980 ft 237 kts 142°
2026-05-04 22:41 40.00060 -74.88936 3009 ft 219 kts 166°
2026-05-04 22:41 39.98601 -74.88335 3038 ft 219 kts 168°
2026-05-04 22:41 39.97143 -74.87820 3009 ft 215 kts 179°
2026-05-04 22:42 39.95736 -74.88156 2966 ft 205 kts 212°
2026-05-04 22:42 39.94630 -74.89408 2970 ft 220 kts 227°
2026-05-04 22:42 39.93782 -74.91134 2970 ft 236 kts 247°
2026-05-04 22:42 39.93332 -74.93141 3004 ft 224 kts 252°
2026-05-04 22:43 39.92945 -74.95042 2993 ft 211 kts 252°
2026-05-04 22:43 39.92575 -74.96877 3018 ft 209 kts 252°
2026-05-04 22:43 39.92208 -74.98713 3014 ft 208 kts 252°
2026-05-04 22:43 39.91847 -75.00533 3018 ft 208 kts 252°
2026-05-04 22:44 39.91498 -75.02295 3048 ft 192 kts 252°
2026-05-04 22:44 39.91166 -75.03960 2784 ft 188 kts 253°
2026-05-04 22:44 39.90844 -75.05584 2570 ft 184 kts 252°
2026-05-04 22:44 39.90521 -75.07201 2334 ft 184 kts 251°
2026-05-04 22:45 39.90207 -75.08783 2112 ft 178 kts 252°
2026-05-04 22:45 39.89653 -75.11867 1670 ft 167 kts 252°
2026-05-04 22:45 39.89372 -75.13307 1417 ft 161 kts 251°
2026-05-04 22:46 39.89080 -75.14678 1188 ft 155 kts 249°
2026-05-04 22:46 39.88763 -75.16052 1097 ft 160 kts 249°
2026-05-04 22:46 39.88494 -75.17426 931 ft 152 kts 253°
2026-05-04 22:46 39.88233 -75.18766 640 ft 152 kts 249°
2026-05-04 22:47 39.87964 -75.20105 391 ft 151 kts 252°
2026-05-04 22:47 39.87694 -75.21442 196 ft 151 kts 253°
2026-05-04 22:47 39.87432 -75.22752 41 ft 141 kts 254°
2026-05-04 22:47 39.87277 -75.23520 29 ft 123 kts 255°
2026-05-04 22:48 39.87091 -75.24443 28 ft 78 kts 255°
2026-05-04 22:48 39.87001 -75.24902 28 ft 31 kts 258°
2026-05-04 22:48 39.87007 -75.25094 28 ft 5 kts 300°
2026-05-04 22:48 39.87018 -75.25105 28 ft 3 kts 324°
2026-05-04 22:49 39.87045 -75.25123 28 ft 6 kts 348°
2026-05-04 22:49 39.87076 -75.25103 28 ft 1 kts 77°
2026-05-04 22:49 39.87076 -75.25102 28 ft 0 kts 77°
2026-05-04 22:50 39.87077 -75.25099 28 ft 1 kts 76°
2026-05-04 22:50 39.87081 -75.25077 28 ft 4 kts 75°
2026-05-04 22:50 39.87081 -75.25075 28 ft 0 kts 75°
2026-05-04 22:51 39.87083 -75.25066 28 ft 3 kts 75°
2026-05-04 22:51 39.87091 -75.25026 28 ft 6 kts 75°